2022-087B (53300 NORAD) Tracking and Keplerian Element Data

This shows tracking and keplerian element data for the satellite.

Feedback or suggestion? Click here.




ElementValue
Catalog53300
Name2022-087B
Epoch Orbit943
Epoch Day270.17997719
Epoch Year2022
RAAN343.613
Inclination97.4003
Eccentricity0.0016896
Argument of Perigee74.7942
Mean Anonmoly10.2308
Mean Motion15.21930054
Decay Rate4.866E-05
L11 53300U 22087B 22270.17997719 .00004866 00000+0 21584-3 0 9999
L22 53300 97.4003 343.6130 0016896 74.7942 10.2308 15.21930054 9439

Live tracking and technical data element details for 2022-087B (NORAD 53300). 2022-087B can be tracked NOW for your location showing map with azimuth and elevation plus other details from your city location.

Track the satellite on the map from your city or location and see movement details for azimuth, elevation, latitude, longitude, range, height, and movement on the map or in text.







IsCatalogInMostPopularTable: catalog: 53300, numindb: 3
Update: records affected: 1



GetName: 53300 2022-087B

Hit Count: updated at: Wed, 28 Sep 2022 23:15:17 GMT